Tracking 17149 objects as of 22-May-2015
HD Live streaming from Space Station

AMC-10 (GE-10)

Track AMC-10 (GE-10) now!
AMC-10 (GE-10) is classified as:


NORAD ID: 28154
Int'l Code: 2004-003A
Perigee: 35,784.1 km
Apogee: 35,801.9 km
Inclination: 0.1 °
Period: 1,436.1 minutes
Semi major axis: 42164 km
RCS: 21.2115 m2 (large)
Launch date: February 5, 2004
Source: SOCIETE EUROPEENNE DES SATELLITES (SES)

24 C-band transponders.
Your satellite tracking list
Your tracking list is empty





NASA's NSSDC Master Catalog

Two Line Element Set (TLE):
1 28154U 04003A   15140.50663850  .00000070  00000-0  10000-3 0  9992
2 28154 000.0543 073.4747 0002108 335.2765 236.4927 01.00274386 41366

Source of the keplerian elements: AFSPC

N2YO: 334